Location: Heisler
(52.6701°N, 112.2239°W)
Time: 14:18:34
(UTC+00:00)

Envisat - Pass Details

Date: 03 December 2021
Orbit: 764 x 766 km, 98.2° (Epoch: 26 January)

Event Time Altitude Azimuth Distance (km) Brightness Sun altitude
Rises 14:26:52 0° 6° (N) 3,249 6.0 -7.8°
Reaches altitude 10° 14:29:48 10° 349° (NNW) 2,317 5.1 -7.4°
Maximum altitude 14:33:14 19° 306° (NW) 1,793 4.3 -7.0°
Drops below altitude 10° 14:36:39 10° 264° (W) 2,307 5.0 -6.5°
Sets 14:39:34 0° 246° (WSW) 3,229 5.9 -6.1°
